Latest Coastal Weather Observations for Holmes Reef

IDQ60701

Issued at 11:55 am EST Friday 1 August 2014 (issued every 10 minutes, with the page automatically refreshed every 10 minutes)

About coastal observations | Map of coastal stations | Coastal observations for QLD | Marine services | Other Formats
Station Details ID: 200732 Name: HOLMES REEF Lat: -16.47 Lon: 147.87 Height: 1.9 m
Data from the previous 72 hours. | See also: Recent months at Holmes Reef
Date/Time
EST
Temp

°C
Wind Pressure Rain
since 9am
mm
Weather Cloud Vis
km
Sea
Height
m
Swell
Dir
 
Speed
knots
Gust
knots
hPa Trend Height
m
Period
s
Dir
01/11:30am 24.6 ESE 7 8 1016.9 - - - - - - - - -
01/11:15am 24.6 ESE 7 - 1016.8 - - - - - - - - -
01/11:00am 24.5 ESE 7 8 1017.1 - - - - - - - - -
01/10:30am 24.6 E 8 9 1017.3 - - - - - - - - -
01/10:15am 24.7 E 8 - 1017.0 - - - - - - - - -
01/10:00am 24.6 E 8 10 1017.4 - - - - - - - - -
01/09:30am 24.6 E 8 9 1017.5 - - - - - - - - -
01/09:15am 24.5 E 9 - 1017.2 - - - - - - - - -
01/09:00am 24.7 E 9 11 1017.3 - - - - - - - - -
01/08:30am 24.3 ESE 8 9 1017.1 - - - - - - - - -
01/08:15am 24.4 ESE 8 - 1016.7 - - - - - - - - -
01/08:00am 24.2 ESE 7 8 1016.7 - - - - - - - - -
01/07:30am 24.4 E 7 8 1016.4 - - - - - - - - -
01/07:15am 24.0 E 6 - 1015.9 - - - - - - - - -
01/07:00am 23.9 E 7 8 1016.1 - - - - - - - - -
01/06:30am 23.8 ESE 7 9 1015.9 - - - - - - - - -
01/06:15am 23.6 ESE 8 - 1015.4 - - - - - - - - -
01/06:00am 23.5 ESE 8 9 1015.6 - - - - - - - - -
01/05:30am 23.5 SE 8 10 1015.4 - - - - - - - - -
01/05:15am 23.5 ESE 8 - 1015.0 - - - - - - - - -
01/05:00am 23.4 ESE 8 10 1015.2 - - - - - - - - -
01/04:30am 23.5 SE 9 9 1015.2 - - - - - - - - -
01/04:15am 23.5 SE 9 - 1015.1 - - - - - - - - -
01/04:00am 23.6 SE 9 11 1015.3 - - - - - - - - -
01/03:30am 23.7 ESE 9 11 1015.2 - - - - - - - - -
01/03:15am 23.5 ESE 10 - 1014.9 - - - - - - - - -
01/03:00am 23.7 E 9 11 1015.4 - - - - - - - - -
01/02:30am 23.6 E 8 9 1015.8 - - - - - - - - -
01/02:15am 23.5 ESE 9 - 1015.6 - - - - - - - - -
01/02:00am 23.6 E 9 10 1016.0 - - - - - - - - -
01/01:30am 23.6 ESE 9 11 1016.4 - - - - - - - - -
01/01:15am 23.7 ESE 9 - 1016.3 - - - - - - - - -
01/01:00am 23.7 ESE 8 10 1016.7 - - - - - - - - -
01/12:30am 23.8 ESE 8 10 1017.1 - - - - - - - - -
01/12:15am 23.7 ESE 9 - 1016.9 - - - - - - - - -
01/12:00am 23.7 ESE 9 11 1017.2 - - - - - - - - -
 
Date/Time
EST
Temp

°C
Wind Pressure Rain
since 9am
mm
Weather Cloud Vis
km
Sea
Height
m
Swell
Dir
 
Speed
knots
Gust
knots
hPa Trend Height
m
Period
s
Dir
31/11:30pm 23.9 ESE 9 11 1017.4 - - - - - - - - -
31/11:15pm 23.8 ESE 10 - 1017.1 - - - - - - - - -
31/11:00pm 23.8 ESE 10 12 1017.5 - - - - - - - - -
31/10:30pm 23.8 E 11 12 1017.4 - - - - - - - - -
31/10:15pm 23.8 ESE 11 - 1017.0 - - - - - - - - -
31/10:00pm 23.9 ESE 12 13 1017.2 - - - - - - - - -
31/09:30pm 23.9 ESE 12 14 1017.2 - - - - - - - - -
31/09:15pm 23.9 ESE 13 - 1016.8 - - - - - - - - -
31/09:00pm 24.0 ESE 13 15 1017.0 - - - - - - - - -
31/08:30pm 24.1 ESE 13 15 1016.8 - - - - - - - - -
31/08:15pm 24.1 ESE 12 - 1016.4 - - - - - - - - -
31/08:00pm 24.0 ESE 12 14 1016.6 - - - - - - - - -
31/07:30pm 24.1 ESE 11 13 1016.4 - - - - - - - - -
31/07:15pm 24.1 ESE 11 - 1016.0 - - - - - - - - -
31/07:00pm 24.1 ESE 11 13 1016.1 - - - - - - - - -
31/06:30pm 24.2 ESE 10 12 1015.8 - - - - - - - - -
31/06:15pm 24.3 ESE 10 - 1015.5 - - - - - - - - -
31/06:00pm 24.3 ESE 11 15 1015.7 - - - - - - - - -
31/05:30pm 24.3 ESE 10 11 1015.6 - - - - - - - - -
31/05:15pm 24.3 ESE 10 - 1015.2 - - - - - - - - -
31/05:00pm 24.2 ESE 9 12 1015.4 - - - - - - - - -
31/04:30pm 24.4 SE 11 13 1015.3 - - - - - - - - -
31/04:15pm 24.4 SE 12 - 1015.0 - - - - - - - - -
31/04:00pm 24.3 SE 12 14 1015.2 - - - - - - - - -
31/03:30pm 24.3 SSE 13 15 1015.1 - - - - - - - - -
31/03:15pm 24.6 SE 12 - 1014.8 - - - - - - - - -
31/03:00pm 24.7 SE 10 12 1015.2 - - - - - - - - -
31/02:30pm 24.7 SE 10 12 1015.2 - - - - - - - - -
31/02:15pm 24.7 SE 10 - 1014.9 - - - - - - - - -
31/02:00pm 24.8 ESE 9 11 1015.3 - - - - - - - - -
31/01:30pm 24.6 SE 11 12 1015.6 - - - - - - - - -
31/01:15pm 24.8 ESE 10 - 1015.5 - - - - - - - - -
31/01:00pm 24.7 ESE 10 11 1016.0 - - - - - - - - -
31/12:30pm 24.7 E 12 13 1016.4 - - - - - - - - -
31/12:15pm 24.6 E 11 - 1016.3 - - - - - - - - -
31/12:00pm 24.5 E 12 14 1016.7 - - - - - - - - -
31/11:30am 24.4 E 13 15 1017.2 - - - - - - - - -
31/11:15am 24.3 E 14 - 1017.0 - - - - - - - - -
31/11:00am 24.3 ENE 14 16 1017.4 - - - - - - - - -
31/10:30am 24.3 ENE 15 17 1017.5 - - - - - - - - -
31/10:15am 24.5 E 14 - 1017.3 - - - - - - - - -
31/10:00am 24.6 E 14 16 1017.7 - - - - - - - - -
31/09:30am 24.5 E 15 17 1017.9 - - - - - - - - -
31/09:15am 24.4 E 15 - 1017.6 - - - - - - - - -
31/09:00am 24.4 E 15 17 1017.7 - - - - - - - - -
31/08:30am 24.6 E 13 15 1017.6 - - - - - - - - -
31/08:15am 24.6 E 14 - 1017.3 - - - - - - - - -
31/08:00am 24.3 E 15 17 1017.5 - - - - - - - - -
31/07:30am 24.4 E 14 15 1017.5 - - - - - - - - -
31/07:15am 24.3 E 14 - 1017.1 - - - - - - - - -
31/07:00am 24.2 E 13 15 1017.2 - - - - - - - - -
31/06:30am 24.2 E 15 17 1017.1 - - - - - - - - -
31/06:15am 24.1 E 15 - 1016.7 - - - - - - - - -
31/06:00am 24.1 E 15 17 1016.9 - - - - - - - - -
31/05:30am 23.9 E 15 17 1016.7 - - - - - - - - -
31/05:15am 24.0 E 14 - 1016.3 - - - - - - - - -
31/05:00am 24.0 E 15 17 1016.6 - - - - - - - - -
31/04:30am 23.9 E 15 17 1016.4 - - - - - - - - -
31/04:15am 23.9 E 15 - 1016.1 - - - - - - - - -
31/04:00am 23.9 E 16 18 1016.4 - - - - - - - - -
31/03:30am 23.9 E 14 17 1016.5 - - - - - - - - -
31/03:15am 24.0 E 16 - 1016.2 - - - - - - - - -
31/03:00am 24.1 E 17 19 1016.6 - - - - - - - - -
31/02:30am 23.9 E 16 19 1016.8 - - - - - - - - -
31/02:15am 24.1 E 17 - 1016.6 - - - - - - - - -
31/02:00am 24.0 E 17 19 1016.9 - - - - - - - - -
31/01:30am 24.0 E 17 20 1017.2 - - - - - - - - -
31/01:15am 23.9 E 18 - 1016.9 - - - - - - - - -
31/01:00am 24.1 E 18 21 1017.3 - - - - - - - - -
31/12:30am 24.0 E 18 20 1017.4 - - - - - - - - -
31/12:15am 24.2 E 18 - 1017.3 - - - - - - - - -
31/12:00am 24.0 E 19 21 1017.6 - - - - - - - - -
 
Date/Time
EST
Temp

°C
Wind Pressure Rain
since 9am
mm
Weather Cloud Vis
km
Sea
Height
m
Swell
Dir
 
Speed
knots
Gust
knots
hPa Trend Height
m
Period
s
Dir
30/11:30pm 24.0 E 19 21 1017.6 - - - - - - - - -
30/11:15pm 24.1 E 19 - 1017.4 - - - - - - - - -
30/11:00pm 24.0 E 19 22 1017.8 - - - - - - - - -
30/10:30pm 24.2 E 18 22 1018.0 - - - - - - - - -
30/10:15pm 24.3 E 19 - 1017.7 - - - - - - - - -
30/10:00pm 24.2 E 18 21 1018.1 - - - - - - - - -
30/09:30pm 24.2 E 18 21 1018.1 - - - - - - - - -
30/09:15pm 24.2 E 19 - 1017.7 - - - - - - - - -
30/09:00pm 24.2 E 19 22 1017.9 - - - - - - - - -
30/08:30pm 24.3 E 18 21 1017.7 - - - - - - - - -
30/08:15pm 24.1 ESE 18 - 1017.3 - - - - - - - - -
30/08:00pm 24.1 ESE 18 21 1017.5 - - - - - - - - -
30/07:30pm 24.0 E 18 21 1017.2 - - - - - - - - -
30/07:15pm 23.6 ESE 16 - 1016.7 - - - - - - - - -
30/07:00pm 23.5 SE 18 20 1016.8 - - - - - - - - -
30/06:30pm 23.7 ESE 18 23 1016.7 - - - - - - - - -
30/06:15pm 23.4 SE 18 - 1016.2 - - - - - - - - -
30/06:00pm 23.6 SE 18 20 1016.6 - - - - - - - - -
30/05:30pm 23.5 ESE 17 20 1016.4 - - - - - - - - -
30/05:15pm 23.4 ESE 18 - 1016.1 - - - - - - - - -
30/05:00pm 23.5 SE 19 21 1016.5 - - - - - - - - -
30/04:30pm 23.6 SE 17 20 1016.4 - - - - - - - - -
30/04:15pm 23.4 SE 18 - 1016.0 - - - - - - - - -
30/04:00pm 23.7 SE 16 18 1016.3 - - - - - - - - -
30/03:30pm 24.0 ESE 17 19 1016.2 - - - - - - - - -
30/03:15pm 23.9 SE 17 - 1015.9 - - - - - - - - -
30/03:00pm 23.9 ESE 17 19 1016.3 - - - - - - - - -
30/02:30pm 23.9 ESE 17 20 1016.5 - - - - - - - - -
30/02:15pm 23.7 ESE 17 - 1016.3 - - - - - - - - -
30/02:00pm 23.7 ESE 17 20 1016.6 - - - - - - - - -
30/01:30pm 23.9 ESE 15 18 1016.9 - - - - - - - - -
30/01:15pm 23.8 ESE 15 - 1016.7 - - - - - - - - -
30/01:00pm 23.8 ESE 16 18 1017.2 - - - - - - - - -
30/12:30pm 24.3 E 15 18 1017.7 - - - - - - - - -
30/12:15pm 24.1 E 15 - 1017.6 - - - - - - - - -
30/12:00pm 24.2 E 16 18 1018.1 - - - - - - - - -
30/11:30am 24.0 ESE 15 18 1018.5 - - - - - - - - -
30/11:15am 24.0 ESE 15 - 1018.4 - - - - - - - - -
30/11:00am 23.7 SE 16 19 1018.9 - - - - - - - - -
30/10:30am 22.7 ESE 17 21 1019.4 - - - - - - - - -
30/10:15am 21.7 ESE 19 - 1019.4 - - - - - - - - -
30/10:00am 22.5 SE 16 23 1019.7 - - - - - - - - -
30/09:30am 22.3 SE 16 22 1019.7 - - - - - - - - -
30/09:25am 22.1 SE 17 24 1019.8 - - - - - - - - -
30/09:15am 22.1 E 23 - 1019.5 - - - - - - - - -
30/09:00am 23.2 E 21 24 1019.8 - - - - - - - - -
30/08:49am 22.8 E 21 25 1019.7 - - - - - - - - -
30/08:30am 24.2 SE 16 19 1019.6 - - - - - - - - -
30/08:15am 24.2 ESE 15 - 1019.2 - - - - - - - - -
30/08:00am 24.2 ESE 15 17 1019.3 - - - - - - - - -
30/07:30am 24.2 ESE 15 18 1019.1 - - - - - - - - -
30/07:15am 24.3 ESE 15 - 1018.5 - - - - - - - - -
30/07:00am 24.0 ESE 15 17 1018.6 - - - - - - - - -
30/06:30am 23.8 ESE 15 17 1018.4 - - - - - - - - -
30/06:15am 23.9 ESE 17 - 1018.0 - - - - - - - - -
30/06:00am 23.9 ESE 17 19 1018.2 - - - - - - - - -
30/05:30am 23.9 ESE 18 20 1017.9 - - - - - - - - -
30/05:15am 23.9 ESE 17 - 1017.5 - - - - - - - - -
30/05:00am 24.0 ESE 17 19 1017.8 - - - - - - - - -
30/04:30am 23.8 ESE 16 19 1017.6 - - - - - - - - -
30/04:15am 23.8 ESE 17 - 1017.2 - - - - - - - - -
30/04:00am 23.6 ESE 17 20 1017.4 - - - - - - - - -
30/03:30am 23.6 ESE 18 21 1017.4 - - - - - - - - -
30/03:15am 23.6 ESE 19 - 1017.0 - - - - - - - - -
30/03:00am 23.5 ESE 19 22 1017.4 - - - - - - - - -
30/02:30am 23.5 E 20 23 1017.6 - - - - - - - - -
30/02:15am 23.7 ESE 22 - 1017.4 - - - - - - - - -
30/02:00am 23.7 ESE 21 24 1017.7 - - - - - - - - -
30/01:30am 23.7 E 18 21 1018.3 - - - - - - - - -
30/01:15am 23.7 E 18 - 1018.1 - - - - - - - - -
30/01:00am 23.8 E 17 20 1018.5 - - - - - - - - -
30/12:30am 23.7 E 17 20 1018.8 - - - - - - - - -
30/12:15am 23.7 E 16 - 1018.6 - - - - - - - - -
30/12:00am 23.8 ESE 18 20 1019.0 - - - - - - - - -
 
Date/Time
EST
Temp

°C
Wind Pressure Rain
since 9am
mm
Weather Cloud Vis
km
Sea
Height
m
Swell
Dir
 
Speed
knots
Gust
knots
hPa Trend Height
m
Period
s
Dir
29/11:30pm 24.0 E 16 19 1019.1 - - - - - - - - -
29/11:15pm 24.0 E 15 - 1018.8 - - - - - - - - -
29/11:00pm 24.0 ESE 15 17 1019.1 - - - - - - - - -
29/10:30pm 23.9 E 15 18 1019.2 - - - - - - - - -
29/10:15pm 23.8 E 15 - 1019.0 - - - - - - - - -
29/10:00pm 23.9 E 16 18 1019.3 - - - - - - - - -
29/09:30pm 23.8 E 16 18 1019.2 - - - - - - - - -
29/09:15pm 23.8 E 15 - 1018.9 - - - - - - - - -
29/09:00pm 23.8 E 15 18 1019.0 - - - - - - - - -
29/08:30pm 23.9 ESE 15 17 1018.8 - - - - - - - - -
29/08:15pm 24.0 E 15 - 1018.4 - - - - - - - - -
29/08:00pm 24.0 E 16 19 1018.6 - - - - - - - - -
29/07:30pm 24.1 E 17 19 1018.5 - - - - - - - - -
29/07:15pm 24.1 E 16 - 1018.1 - - - - - - - - -
29/07:00pm 24.0 E 15 18 1018.2 - - - - - - - - -
29/06:30pm 24.0 ESE 15 17 1017.9 - - - - - - - - -
29/06:15pm 24.0 ESE 14 - 1017.5 - - - - - - - - -
29/06:00pm 24.0 ESE 14 16 1017.7 - - - - - - - - -
29/05:30pm 24.2 ESE 14 16 1017.8 - - - - - - - - -
29/05:15pm 24.1 ESE 14 - 1017.4 - - - - - - - - -
29/05:00pm 24.2 ESE 14 16 1017.5 - - - - - - - - -
29/04:30pm 24.3 ESE 13 15 1017.3 - - - - - - - - -
29/04:15pm 24.3 E 13 - 1016.9 - - - - - - - - -
29/04:00pm 24.2 ESE 13 15 1017.1 - - - - - - - - -
29/03:30pm 24.2 ESE 14 16 1017.2 - - - - - - - - -
29/03:15pm 24.1 E 14 - 1017.0 - - - - - - - - -
29/03:00pm 24.3 ESE 14 17 1017.3 - - - - - - - - -
29/02:30pm 24.2 E 16 19 1017.5 - - - - - - - - -
29/02:15pm 24.2 ESE 16 - 1017.2 - - - - - - - - -
29/02:00pm 24.2 ESE 16 19 1017.7 - - - - - - - - -
29/01:30pm 24.1 ESE 15 19 1018.1 - - - - - - - - -
29/01:15pm 24.1 ESE 15 - 1018.0 - - - - - - - - -
29/12:30pm 24.2 E 18 20 1018.9 - - - - - - - - -
29/12:15pm 24.2 ESE 18 - 1018.8 - - - - - - - - -
29/12:00pm 24.2 ESE 18 21 1019.3 - - - - - - - - -

Other Formats:

Comma delimited format used in spreadsheet applications
http://www.bom.gov.au/fwo/IDQ60701/IDQ60701.94289.axf

JavaScript Object Notation format (JSON) in row-major order
http://www.bom.gov.au/fwo/IDQ60701/IDQ60701.94289.json